www.pogodaiklimat.ru

Погода и климат >> Архив погоды >> Израиль >> Израильский мет сервис


ПОГОДА в Израильском мет сервисе

  • Прогноз погоды в Израильском мет сервисе
  • Монитор погоды в Израильском мет сервисе

АРХИВ ПОГОДЫ в Израильском мет сервисе

Время (UTC), дата Ветер
(напр.,м/с)
 
Видим.   Явления Облачность Т
(С)
Тd
(С)
f
(%)
Тe
(С)
Тes
(С)
Комфортность P
(гПа)
Po
(гПа)
Тmin
(С)
Tmax
(С)
R
(мм)
R24
(мм)
S
(см)
00 11.06 В 1 10 км ясно +21.6 +12.9 58 +24 +24 комфорт 1008.1 1004.5
03 11.06 ЮВ 1 10 км ясно +20.0 +13.0 64 +23 +23 комфорт 1009.1 1005.5
06 11.06 Ю 1 10 км ясно +29.7 +13.0 36 +31 +43 жарко 1009.9 1006.4 +19.9 +30.1
09 11.06 СЗ 2 15 км ясно +33.0 +14.0 32 +34 +55 опасность
солнечного
удара
1009.4 1005.9
12 11.06 СЗ 2 15 км ясно +34.5 +12.2 26 +35 +50 очень
жарко
1008.4 1004.9
15 11.06 С 3 15 км ясно +32.7 +11.4 27 +33 +35 жарко 1008.3 1004.8
18 11.06 С 2 10 км ясно +28.8 +14.0 40 +31 +31 жарко 1009.6 1006.1 +28.7 +34.7
21 11.06 10 км ясно +25.7 +12.9 45 1009.3 1005.7
00 12.06 СЗ 2 10 км ясно +25.0 +21.5 81 +32 +32 очень
душно
1009.7 1006.1
03 12.06 ЮВ 1 8000 м мгла 3/3 300 м
[St]
+23.1 +19.4 80 +30 +30 очень
душно
1010.6 1007.0
06 12.06 ЮЗ 1 10 км 6/6 300 м
[Cu hum]
+27.0 +20.5 68 +34 +38 очень
душно
1011.6 1008.0 +23.0 +28.7
09 12.06 З 3 10 км 4/4 600 м
[Cu hum]
+29.2 +20.6 60 +36 +48 очень
душно
1012.0 1008.5
12 12.06 З 2 10 км 6/6 600 м
[Sc diur, vesp]
+29.1 +20.4 59 +36 +42 очень
душно
1011.4 1007.9
15 12.06 З 2 10 км 6/1 600 м
[Cu hum]
+27.4 +19.8 63 +33 +35 очень
душно
1011.4 1007.8
18 12.06 З 2 10 км 3/3 600 м
[Cu hum]
+24.7 +19.0 71 +30 +30 очень
душно
1012.4 1008.8 +24.6 +29.6
21 12.06 З 1 10 км 8/8 600 м
[Cu hum]
+24.4 +19.4 74 +30 +30 очень
душно
1012.5 1008.9
00 13.06 З 2 10 км 3/3 300 м
[Cu hum]
+23.6 +19.6 78 +29 +29 душно 1011.2 1007.6
03 13.06 Ю 1 10 км 5/5 300 м
[Sc diur, vesp]
+21.9 +18.7 82 +27 +27 душно 1011.2 1007.6
06 13.06 З 3 15 км 6/6 600 м
[Cu Sc]
+25.7 +18.8 66 +31 +34 очень
душно
1011.7 1008.1 +21.9 +26.0
09 13.06 З 2 10 км 4/4 600 м
[Cu hum]
+28.2 +18.2 55 +33 +46 очень
душно
1011.7 1008.2
12 13.06 З 3 15 км 5/5 600 м
[Cu hum]
+28.3 +19.0 57 +34 +41 очень
душно
1010.9 1007.4
15 13.06 З 2 15 км 3/3 600 м
[Cu hum]
+27.1 +17.9 57 +32 +34 очень
душно
1010.3 1006.7
18 13.06 З 2 10 км 3/3 600 м
[Cu hum]
+24.7 +19.4 72 +30 +30 очень
душно
1010.8 1007.2 +24.6 +29.4
21 13.06 СЗ 1 10 км 4/4 600 м
[Cu hum]
+24.3 +19.0 72 +29 +29 душно 1010.4 1006.8
00 14.06 Ю 1 10 км 1/1 600 м
[Sc diur, vesp]
+22.1 +18.8 82 +27 +27 душно 1009.4 1005.8
03 14.06 Ю 1 10 км 3/3 600 м
[Cu hum]
+21.8 +18.8 83 +27 +27 душно 1008.8 1005.2
06 14.06 ЮЗ 2 10 км 6/6 600 м
[Cu hum]
+25.8 +18.8 65 +31 +35 очень
душно
1009.4 1005.8 +21.8 +26.1
09 14.06 З 2 10 км 4/4 600 м
[Cu hum]
+28.1 +18.7 57 +33 +46 очень
душно
1009.3 1005.8
12 14.06 СЗ 3 10 км 4/4 600 м
[Cu hum]
+28.4 +19.2 57 +34 +43 очень
душно
1008.5 1005.0
15 14.06 СЗ 2 10 км 1/1 1000 м
[Cu hum]
+27.3 +19.2 61 +33 +35 очень
душно
1008.0 1004.5
18 14.06 С 2 15 км 1/1 600 м
[Cu hum]
+24.7 +19.4 72 +30 +30 очень
душно
1008.6 1005.0 +24.6 +29.2
21 14.06 В 1 10 км 3/3 600 м
[Cu hum]
+23.4 +19.2 77 +30 +30 очень
душно
1008.4 1004.8
00 15.06 ЮВ 1 10 км 1/1 300 м
[Cu hum]
+21.6 +18.6 83 +26 +26 душно 1007.3 1003.7
03 15.06 Ю 1 15 км 1/1 600 м
[Cu hum]
+20.7 +17.8 83 +26 +26 душно 1007.4 1003.8
06 15.06 З 1 10 км 6/6 600 м
[Cu hum]
+26.5 +18.8 63 +32 +36 очень
душно
1007.9 1004.3 +20.6 +26.7
09 15.06 З 2 10 км 3/3 600 м
[Cu hum]
+28.3 +18.8 56 +33 +49 очень
душно
1007.9 1004.4
12 15.06 З 2 10 км 1/1 1000 м
[Cu hum]
+28.8 +19.7 58 +35 +49 очень
душно
1007.6 1004.1
15 15.06 СЗ 2 10 км ясно +27.7 +19.7 62 +34 +36 очень
душно
1007.0 1003.5
18 15.06 С 1 10 км 1/1 600 м
[Cu hum]
+25.2 +20.3 74 +31 +31 очень
душно
1007.5 1003.9 +25.1 +29.3
21 15.06 СВ 1 10 км ясно +23.6 +19.7 79 +29 +29 душно 1007.5 1003.9
00 16.06 В 1 10 км ясно +21.9 +18.8 83 +27 +27 душно 1006.7 1003.1
03 16.06 ЮВ 1 10 км ясно +20.5 +17.9 85 +26 +26 душно 1007.1 1003.5
06 16.06 ЮЗ 1 10 км ясно +27.8 +17.1 52 +32 +43 душно 1007.7 1004.2 +20.4 +28.0
09 16.06 З 2 10 км ясно +30.7 +18.4 48 +36 +57 опасность
солнечного
удара
1008.1 1004.6
15 16.06 СЗ 2 10 км 3/3 300 м
[St]
+28.0 +21.3 67 +35 +37 очень
душно
1007.7 1004.2
18 16.06 СВ 1 10 км ясно +26.5 +19.3 65 +32 +32 очень
душно
1008.5 1004.9 +26.5 +31.2
21 16.06 З 1 10 км ясно +25.1 +19.4 71 +30 +30 душно 1008.3 1004.7
00 17.06 З 1 10 км 6/6 1000 м
[Sc]
+24.0 +20.3 80 +30 +30 очень
душно
1008.5 1004.9
03 17.06 ЮЗ 1 10 км 8/8 1000 м
[Cu hum]
+23.1 +18.8 77 +29 +29 очень
душно
1008.6 1005.0
06 17.06 ЮЗ 2 10 км 6/6 600 м
[Cu hum]
+27.5 +20.0 64 +34 +38 очень
душно
1009.3 1005.8 +23.1 +27.7
09 17.06 ЮЗ 3 10 км 5/5 600 м
[Cu hum]
+29.1 +20.0 58 +35 +45 очень
душно
1010.0 1006.5
12 17.06 З 2 10 км 3/3 600 м
[Cu hum]
+29.6 +20.0 56 +36 +47 очень
душно
1010.2 1006.7
15 17.06 З 2 10 км 3/3 600 м
[Cu hum]
+28.2 +19.1 58 +34 +36 очень
душно
1010.2 1006.7
18 17.06 З 2 10 км 1/1 300 м
[St]
+25.4 +19.9 72 +31 +31 очень
душно
1011.0 1007.4 +25.4 +30.2
21 17.06 СЗ 1 10 км 4/4 300 м
[Sc]
+24.6 +20.4 77 +30 +30 очень
душно
1011.4 1007.8

 

Местоположение метеостанции Израильский мет сервис (Израиль): широта 32.00 долгота 34.82 высота над уровнем моря 35 м.

В архиве по умолчанию представлена погода в Израильском мет сервисе за последнюю неделю. Архивные данные за месяц целиком и за предыдущие месяцы, начиная с января 2011 года, Вы можете получить, выбрав интересующий диапазон дат из раскрывающегося списка и нажав кнопку "Ввод!".


*Определитесь, кто Вы:
робот инопланетянин человек

Внимание! Время в таблицах - всемирное. Для получения местного времени необходимо прибавить поправку, которая равна 2 ч.

Смотрите также архив погоды в соседних городах и на ближайших метеорологических станциях:

Погода в Тель-Авиве (Израиль) (12 км)
Погода в Иерусалиме (Израиль) (46 км)
Погода в Ашкелон порту (Израиль) (49 км)
Погода в Хадера порту (Израиль) (53 км)
Погода в Беэр-Шева (Израиль) (83 км)
Погода в Афеке (Израиль) (98 км)
Погода в Аммане (Иордания) (109 км)
Погода в Капернауме (Израиль) (110 км)
Погода в Аэропорту Королева Алия (Иордания) (114 км)
Погода в Ирбиде (Иордания) (115 км)

Пояснения к столбцам:

Ветер - указаны скорость ветра в м/с - средняя за 10 мин, порывы в срок и между сроками (в фигурных скобках) и направление, откуда дует ветер: С - северный, СВ - северо-восточный, В - восточный, ЮВ - юго-восточный, Ю - южный, ЮЗ - юго-западный, З - западный, СЗ - северо-западный.
Видимость - горизонтальная дальность видимости в метрах или километрах. При видимости от 1 до 10 км при отсутствии осадков обычно наблюдается дымка, при ухудшении видимости до 1 км и менее - туман. В сухую погоду видимость может ухудшаться дымом, пылью или мглою.
Явления - указаны атмосферные явления, наблюдавшиеся в срок или в последний час перед сроком; фигурными скобками обозначены явления, наблюдавшиеся между сроками (за 1-3 часа до срока); квадратными скобками обозначены град или гололедные отложения с указанием их диаметра в мм.
Облачность - указаны через наклонную черту общая и нижняя облачность в баллах и высота нижней границы облаков в метрах; квадратными скобками обозначены формы облаков: Ci - перистые, Cs - перисто-слоистые, Cc - перисто-кучевые, Ac - высококучевые, As - высокослоистые, Sc - слоисто-кучевые, Ns - слоисто-дождевые, Cu - кучевые, Cb - кучево-дождевые. Подробнее классификацию облаков см. в Атласе облаков (PDF).
T - Температура воздуха - температура, измеренная на высоте 2 м над землей.
Td - Температура точки росы - температура, при понижении до которой содержащийся в воздухе водяной пар достигнет насыщения.
f - Относительная влажность воздуха - влажноcть воздуха, измеренная на высоте 2 м над землей.
Te - Эффективная температура - температура, которую ощущает одетый по сезону человек в тени. Характеристика душности погоды. При расчете учитывается влияние влажности воздуха и скорости ветра на теплоощущения человека.
Tes - Эффективная температура на солнце - температура, которую ощущает человек, с поправкой на солнечный нагрев. Характеристика знойности погоды. Зависит от высоты солнца над горизонтом, облачности и скорости ветра. Ночью, в пасмурную погоду, а также при ветре 12 м/с и более поправка равна нулю.
P - Атмосферное давление - приведенное к уровню моря атмосферное давление.
Po - Атмосферное давление - измеренное на уровне метеостанции атмосферное давление.
Tmin - Минимальная температура - минимум температуры воздуха на высоте 2 м над землей.
Tmax - Максимальная температура - максимум температуры воздуха на высоте 2 м над землей.
R - Количество осадков - Количество выпавших осадков за период времени, мм. При наведении курсора мыши на число - период времени, за который выпало указанное количество осадков.
R24 - Количество осадков - Количество выпавших осадков за 24 часа, мм.
S - Снежный покров - Высота снежного покрова, см. При наведении курсора мыши на число - состояние снежного покрова и степень покрытия местности в баллах.